CFG3FJ EDDF-EDDM

Flight info

Callsign CFG3FJ
Flight time 0h 37m
Altitude 23000
Route CINDY8S/18 CINDY Z74 HAREM T104 ROKIL ROKIL1B
Aircraft A320/M-SDE3FGHIJ1LORVWXYZ/S

Departure

Time 2026-05-07 16:33
Airport Frankfurt Main Airport (EDDF)

Arrival

Time 2026-05-07 17:11
Airport Munich Airport (EDDM)
Time Latitude Longitude Altitude Speed Heading
2026-05-07 16:04 50.04910 8.58866 365 ft 0 kts 160°
2026-05-07 16:16 50.04920 8.58860 366 ft 4 kts 160°
2026-05-07 16:16 50.04942 8.58848 362 ft 2 kts 160°
2026-05-07 16:17 50.04966 8.58839 362 ft 4 kts 185°
2026-05-07 16:17 50.04989 8.58852 360 ft 4 kts 229°
2026-05-07 16:17 50.05002 8.58885 360 ft 4 kts 250°
2026-05-07 16:17 50.05007 8.58906 363 ft 0 kts 250°
2026-05-07 16:22 50.05006 8.58903 364 ft 2 kts 250°
2026-05-07 16:22 50.04986 8.58821 363 ft 14 kts 249°
2026-05-07 16:23 50.04946 8.58651 363 ft 19 kts 249°
2026-05-07 16:23 50.04897 8.58449 364 ft 21 kts 249°
2026-05-07 16:23 50.04843 8.58222 364 ft 24 kts 250°
2026-05-07 16:23 50.04784 8.58002 358 ft 21 kts 232°
2026-05-07 16:24 50.04690 8.57829 360 ft 22 kts 248°
2026-05-07 16:24 50.04636 8.57599 361 ft 24 kts 249°
2026-05-07 16:24 50.04575 8.57347 360 ft 26 kts 250°
2026-05-07 16:24 50.04523 8.57129 360 ft 18 kts 250°
2026-05-07 16:25 50.04507 8.57062 360 ft 0 kts 251°
2026-05-07 16:27 50.04505 8.57050 359 ft 5 kts 250°
2026-05-07 16:27 50.04482 8.56956 364 ft 11 kts 249°
2026-05-07 16:27 50.04447 8.56812 362 ft 18 kts 249°
2026-05-07 16:28 50.04394 8.56589 360 ft 24 kts 250°
2026-05-07 16:28 50.04334 8.56333 361 ft 25 kts 250°
2026-05-07 16:28 50.04271 8.56074 354 ft 26 kts 249°
2026-05-07 16:28 50.04212 8.55826 355 ft 25 kts 249°
2026-05-07 16:29 50.04153 8.55579 356 ft 23 kts 249°
2026-05-07 16:29 50.04096 8.55335 359 ft 24 kts 250°
2026-05-07 16:29 50.04039 8.55102 354 ft 24 kts 250°
2026-05-07 16:29 50.03978 8.54843 358 ft 27 kts 250°
2026-05-07 16:30 50.03913 8.54576 351 ft 27 kts 249°
2026-05-07 16:30 50.03838 8.54323 348 ft 25 kts 235°
2026-05-07 16:30 50.03763 8.54069 347 ft 27 kts 249°
2026-05-07 16:30 50.03696 8.53792 344 ft 28 kts 249°
2026-05-07 16:31 50.03622 8.53494 341 ft 30 kts 249°
2026-05-07 16:31 50.03551 8.53194 339 ft 27 kts 250°
2026-05-07 16:31 50.03486 8.52930 335 ft 24 kts 249°
2026-05-07 16:31 50.03438 8.52749 333 ft 19 kts 248°
2026-05-07 16:32 50.03394 8.52601 333 ft 11 kts 219°
2026-05-07 16:32 50.03350 8.52594 336 ft 1 kts 179°
2026-05-07 16:32 50.03328 8.52594 334 ft 16 kts 179°
2026-05-07 16:33 50.02910 8.52598 333 ft 100 kts 180°
2026-05-07 16:33 50.01993 8.52610 409 ft 153 kts 180°
2026-05-07 16:33 50.00932 8.52642 1159 ft 154 kts 180°
2026-05-07 16:33 49.99841 8.52640 1889 ft 161 kts 181°
2026-05-07 16:34 49.98640 8.52627 2385 ft 183 kts 180°
2026-05-07 16:34 49.97307 8.52841 2908 ft 204 kts 161°
2026-05-07 16:34 49.96078 8.54155 3376 ft 230 kts 126°
2026-05-07 16:34 49.95235 8.56310 4257 ft 237 kts 119°
2026-05-07 16:35 49.94428 8.58571 5221 ft 242 kts 116°
2026-05-07 16:35 49.93982 8.61104 6079 ft 254 kts 94°
2026-05-07 16:35 49.93919 8.63975 6655 ft 276 kts 91°
2026-05-07 16:35 49.93692 8.66975 7563 ft 284 kts 105°
2026-05-07 16:36 49.92874 8.69780 8552 ft 290 kts 124°
2026-05-07 16:36 49.91494 8.72078 9563 ft 294 kts 143°
2026-05-07 16:36 49.89816 8.73949 10372 ft 306 kts 142°
2026-05-07 16:36 49.88244 8.76353 10766 ft 331 kts 129°
2026-05-07 16:37 49.86973 8.79431 11323 ft 346 kts 117°
2026-05-07 16:37 49.85825 8.82751 12152 ft 352 kts 118°
2026-05-07 16:37 49.84636 8.86091 13048 ft 356 kts 119°
2026-05-07 16:37 49.83417 8.89456 13924 ft 360 kts 119°
2026-05-07 16:38 49.82175 8.92853 14688 ft 365 kts 120°
2026-05-07 16:38 49.80915 8.96289 15450 ft 369 kts 120°
2026-05-07 16:38 49.79641 8.99765 16195 ft 373 kts 120°
2026-05-07 16:38 49.78353 9.03276 16952 ft 378 kts 120°
2026-05-07 16:39 49.77052 9.06840 17697 ft 383 kts 118°
2026-05-07 16:39 49.75989 9.10645 18377 ft 390 kts 108°
2026-05-07 16:39 49.75289 9.14719 19013 ft 394 kts 107°
2026-05-07 16:39 49.74263 9.18656 19667 ft 397 kts 119°
2026-05-07 16:40 49.72745 9.22221 20351 ft 398 kts 130°
2026-05-07 16:40 49.70910 9.25440 21046 ft 401 kts 133°
2026-05-07 16:40 49.69052 9.28673 21720 ft 404 kts 132°
2026-05-07 16:40 49.67191 9.31946 22386 ft 407 kts 132°
2026-05-07 16:41 49.65320 9.35250 22905 ft 410 kts 132°
2026-05-07 16:41 49.63448 9.38568 23034 ft 412 kts 132°
2026-05-07 16:41 49.61559 9.41910 23061 ft 413 kts 132°
2026-05-07 16:41 49.59671 9.45247 23059 ft 413 kts 132°
2026-05-07 16:42 49.57776 9.48586 23045 ft 414 kts 132°
2026-05-07 16:42 49.55868 9.51935 23055 ft 417 kts 133°
2026-05-07 16:42 49.53953 9.55286 23054 ft 417 kts 133°
2026-05-07 16:42 49.52036 9.58636 23055 ft 417 kts 133°
2026-05-07 16:43 49.50118 9.61988 23054 ft 417 kts 133°
2026-05-07 16:43 49.48201 9.65345 23055 ft 418 kts 133°
2026-05-07 16:43 49.46283 9.68696 23054 ft 418 kts 133°
2026-05-07 16:43 49.44358 9.72045 23054 ft 417 kts 133°
2026-05-07 16:44 49.42435 9.75386 23054 ft 417 kts 133°
2026-05-07 16:44 49.40512 9.78721 23053 ft 417 kts 133°
2026-05-07 16:44 49.38591 9.82055 23053 ft 417 kts 133°
2026-05-07 16:44 49.36668 9.85392 23052 ft 417 kts 133°
2026-05-07 16:45 49.34738 9.88728 23043 ft 418 kts 133°
2026-05-07 16:45 49.32806 9.92060 23038 ft 419 kts 133°
2026-05-07 16:45 49.30869 9.95398 23028 ft 419 kts 133°
2026-05-07 16:45 49.28928 9.98736 23030 ft 420 kts 133°
2026-05-07 16:46 49.26986 10.02071 23032 ft 420 kts 133°
2026-05-07 16:46 49.25036 10.05414 23033 ft 421 kts 133°
2026-05-07 16:46 49.23085 10.08752 23035 ft 421 kts 133°
2026-05-07 16:46 49.21133 10.12090 23037 ft 421 kts 133°
2026-05-07 16:47 49.19182 10.15428 23048 ft 421 kts 133°
2026-05-07 16:47 49.17227 10.18768 23051 ft 421 kts 133°
2026-05-07 16:47 49.15273 10.22107 23055 ft 422 kts 133°
2026-05-07 16:47 49.13309 10.25441 23047 ft 422 kts 134°
2026-05-07 16:48 49.11314 10.28732 23046 ft 423 kts 135°
2026-05-07 16:48 49.09286 10.31991 23061 ft 423 kts 135°
2026-05-07 16:48 49.07242 10.35228 23062 ft 424 kts 135°
2026-05-07 16:48 49.05194 10.38462 23047 ft 424 kts 136°
2026-05-07 16:49 49.03152 10.41698 23052 ft 424 kts 135°
2026-05-07 16:49 49.01116 10.44944 23062 ft 423 kts 135°
2026-05-07 16:49 48.99087 10.48190 23065 ft 423 kts 135°
2026-05-07 16:49 48.97054 10.51441 23068 ft 423 kts 135°
2026-05-07 16:50 48.95024 10.54687 23064 ft 424 kts 135°
2026-05-07 16:50 48.92993 10.57932 23066 ft 424 kts 135°
2026-05-07 16:50 48.90961 10.61172 22937 ft 422 kts 135°
2026-05-07 16:50 48.88941 10.64381 22663 ft 418 kts 135°
2026-05-07 16:51 48.86933 10.67561 22394 ft 416 kts 135°
2026-05-07 16:51 48.84961 10.70682 22120 ft 414 kts 135°
2026-05-07 16:51 48.82956 10.73858 21740 ft 408 kts 135°
2026-05-07 16:51 48.81003 10.76949 21236 ft 403 kts 135°
2026-05-07 16:52 48.79070 10.80002 20711 ft 399 kts 136°
2026-05-07 16:52 48.77154 10.83020 20224 ft 395 kts 136°
2026-05-07 16:52 48.75253 10.86001 19706 ft 392 kts 136°
2026-05-07 16:52 48.73361 10.88958 19177 ft 390 kts 136°
2026-05-07 16:53 48.71476 10.91898 18649 ft 387 kts 136°
2026-05-07 16:53 48.69602 10.94813 18088 ft 386 kts 136°
2026-05-07 16:53 48.67737 10.97713 17528 ft 383 kts 136°
2026-05-07 16:53 48.65888 11.00595 16991 ft 380 kts 136°
2026-05-07 16:54 48.64051 11.03454 16455 ft 377 kts 136°
2026-05-07 16:54 48.62229 11.06287 16024 ft 372 kts 136°
2026-05-07 16:54 48.60430 11.09079 15481 ft 371 kts 136°
2026-05-07 16:54 48.58659 11.11818 14958 ft 358 kts 138°
2026-05-07 16:55 48.56760 11.14165 14139 ft 349 kts 149°
2026-05-07 16:55 48.54845 11.16377 13638 ft 349 kts 137°
2026-05-07 16:55 48.53364 11.19300 13213 ft 353 kts 120°
2026-05-07 16:55 48.52516 11.22758 12741 ft 352 kts 102°
2026-05-07 16:56 48.52344 11.26398 12015 ft 349 kts 85°
2026-05-07 16:56 48.52808 11.29983 11499 ft 347 kts 77°
2026-05-07 16:56 48.53433 11.37141 10724 ft 337 kts 84°
2026-05-07 16:57 48.53650 11.40583 10598 ft 323 kts 84°
2026-05-07 16:57 48.53861 11.43900 10445 ft 313 kts 84°
2026-05-07 16:57 48.54068 11.47139 10126 ft 309 kts 84°
2026-05-07 16:57 48.54274 11.50349 9776 ft 306 kts 84°
2026-05-07 16:58 48.54477 11.53538 9365 ft 305 kts 84°
2026-05-07 16:58 48.54676 11.56705 8973 ft 302 kts 84°
2026-05-07 16:58 48.54871 11.59859 8701 ft 301 kts 84°
2026-05-07 16:58 48.55063 11.63000 8449 ft 301 kts 84°
2026-05-07 16:59 48.55255 11.66136 8190 ft 299 kts 84°
2026-05-07 16:59 48.55440 11.69253 7936 ft 297 kts 85°
2026-05-07 16:59 48.55627 11.72355 7681 ft 296 kts 84°
2026-05-07 16:59 48.55810 11.75448 7429 ft 295 kts 84°
2026-05-07 17:00 48.55993 11.78520 7169 ft 293 kts 84°
2026-05-07 17:00 48.56175 11.81580 6919 ft 292 kts 84°
2026-05-07 17:00 48.56353 11.84629 6672 ft 291 kts 84°
2026-05-07 17:00 48.56525 11.87662 6444 ft 289 kts 84°
2026-05-07 17:01 48.56696 11.90689 6292 ft 289 kts 84°
2026-05-07 17:01 48.56863 11.93714 6137 ft 288 kts 85°
2026-05-07 17:01 48.57029 11.96719 6012 ft 287 kts 84°
2026-05-07 17:01 48.57196 11.99718 6010 ft 286 kts 84°
2026-05-07 17:02 48.57363 12.02701 5754 ft 283 kts 84°
2026-05-07 17:02 48.57523 12.05657 5282 ft 282 kts 84°
2026-05-07 17:02 48.57594 12.07604 5066 ft 279 kts 91°
2026-05-07 17:02 48.57104 12.10319 5001 ft 260 kts 122°
2026-05-07 17:03 48.55902 12.12154 5006 ft 238 kts 155°
2026-05-07 17:03 48.54358 12.12908 5013 ft 232 kts 172°
2026-05-07 17:03 48.52769 12.13301 5013 ft 230 kts 180°
2026-05-07 17:03 48.51205 12.13034 5020 ft 227 kts 194°
2026-05-07 17:04 48.49658 12.12588 5018 ft 226 kts 194°
2026-05-07 17:04 48.48110 12.12134 5021 ft 227 kts 194°
2026-05-07 17:04 48.46589 12.11688 5016 ft 215 kts 195°
2026-05-07 17:04 48.45177 12.11290 5015 ft 198 kts 194°
2026-05-07 17:05 48.43874 12.10930 5015 ft 186 kts 194°
2026-05-07 17:05 48.42605 12.10555 5034 ft 185 kts 194°
2026-05-07 17:05 48.41344 12.10178 5055 ft 185 kts 194°
2026-05-07 17:05 48.40152 12.09538 4979 ft 181 kts 213°
2026-05-07 17:06 48.39203 12.08334 4870 ft 178 kts 234°
2026-05-07 17:06 48.38611 12.06742 4700 ft 173 kts 253°
2026-05-07 17:06 48.38401 12.04974 4498 ft 171 kts 265°
2026-05-07 17:06 48.38270 12.03191 4279 ft 172 kts 265°
2026-05-07 17:07 48.38138 12.01407 4044 ft 170 kts 265°
2026-05-07 17:07 48.38008 11.99664 3829 ft 166 kts 265°
2026-05-07 17:07 48.37881 11.97956 3603 ft 163 kts 265°
2026-05-07 17:07 48.37757 11.96303 3387 ft 154 kts 265°
2026-05-07 17:08 48.37640 11.94748 3189 ft 143 kts 266°
2026-05-07 17:08 48.37533 11.93335 3009 ft 131 kts 267°
2026-05-07 17:08 48.37433 11.91992 2838 ft 127 kts 265°
2026-05-07 17:08 48.37334 11.90672 2666 ft 127 kts 266°
2026-05-07 17:09 48.37238 11.89363 2472 ft 127 kts 268°
2026-05-07 17:09 48.37149 11.88032 2298 ft 129 kts 268°
2026-05-07 17:09 48.37035 11.86674 2112 ft 132 kts 266°
2026-05-07 17:09 48.36917 11.85288 1927 ft 135 kts 266°
2026-05-07 17:10 48.36807 11.83897 1764 ft 133 kts 268°
2026-05-07 17:10 48.36711 11.82503 1569 ft 134 kts 267°
2026-05-07 17:10 48.36617 11.81184 1486 ft 111 kts 264°
2026-05-07 17:10 48.36545 11.80170 1485 ft 87 kts 264°
2026-05-07 17:11 48.36477 11.79349 1482 ft 72 kts 264°
2026-05-07 17:11 48.36431 11.79013 1480 ft 15 kts 255°
2026-05-07 17:11 48.36376 11.78864 1485 ft 18 kts 237°
2026-05-07 17:11 48.36306 11.78716 1485 ft 17 kts 232°
2026-05-07 17:12 48.36241 11.78587 1474 ft 10 kts 233°
2026-05-07 17:12 48.36224 11.78551 1485 ft 1 kts 233°
2026-05-07 17:12 48.36209 11.78522 1472 ft 8 kts 232°
2026-05-07 17:12 48.36159 11.78423 1485 ft 14 kts 233°
2026-05-07 17:13 48.36123 11.78301 1485 ft 12 kts 261°
2026-05-07 17:13 48.36111 11.78141 1485 ft 20 kts 263°
2026-05-07 17:13 48.36094 11.77921 1485 ft 23 kts 264°
2026-05-07 17:13 48.36079 11.77714 1485 ft 15 kts 259°
2026-05-07 17:14 48.35999 11.77670 1483 ft 13 kts 171°
2026-05-07 17:14 48.35910 11.77687 1482 ft 12 kts 173°
2026-05-07 17:14 48.35843 11.77697 1486 ft 5 kts 174°
2026-05-07 17:14 48.35833 11.77699 1486 ft 1 kts 174°
2026-05-07 17:15 48.35831 11.77699 1486 ft 0 kts 174°
2026-05-07 17:17 48.35821 11.77701 1474 ft 8 kts 173°
2026-05-07 17:17 48.35727 11.77717 1485 ft 15 kts 173°
2026-05-07 17:17 48.35626 11.77735 1485 ft 14 kts 173°
2026-05-07 17:17 48.35533 11.77751 1481 ft 13 kts 173°
2026-05-07 17:18 48.35431 11.77768 1481 ft 15 kts 174°
2026-05-07 17:18 48.35347 11.77801 1483 ft 12 kts 137°
2026-05-07 17:18 48.35340 11.77911 1485 ft 11 kts 87°
2026-05-07 17:18 48.35346 11.78025 1476 ft 11 kts 82°
2026-05-07 17:19 48.35332 11.78151 1482 ft 17 kts 133°
2026-05-07 17:19 48.35221 11.78183 1485 ft 16 kts 174°
2026-05-07 17:19 48.35138 11.78203 1474 ft 8 kts 152°
2026-05-07 17:19 48.35125 11.78272 1479 ft 7 kts 83°
2026-05-07 17:20 48.35130 11.78334 1480 ft 4 kts 83°
2026-05-07 17:20 48.35131 11.78342 1479 ft 0 kts 83°